www.pogodaiklimat.ru

Погода и климат >> Архив погоды >> Украина >> Харьков


АРХИВ ПОГОДЫ в Харькове

Время (UTC), дата Ветер
(напр.,м/с)
 
Видим.   Явления Облачность Т
(С)
Тd
(С)
f
(%)
Тe
(С)
Тes
(С)
Комфортность P
(гПа)
Po
(гПа)
Тmin
(С)
Tmax
(С)
R
(мм)
S
(см)
00 14.02 ЮЗ 3 10 км {ливн. осадки, снег} 8/0
[Ac trans]
-8.5 -10.9 83 -14 -14 по сезону 1028.0 1007.7
03 14.02 ЮЗ 5 10 км слабый снег 10/10 270 м
[Sc]
-8.3 -10.2 86 -16 -16 прохладно 1025.0 1004.8
06 14.02 З 6 10 км в посл. час снег 9/9 360 м
[Sc]
-7.7 -9.9 84 -16 -16 прохладно 1021.9 1001.8 -8.7 0.2 30
09 14.02 ЮЗ 6 10 км {снег} 10/10 330 м
[Sc]
-7.1 -9.2 85 -15 -15 прохладно 1017.7 997.7
12 14.02 З 7 1800 м ливневой снег 10/10 300 м
[Cb cap]
-6.1 -7.6 89 -15 -15 холодно 1012.3 992.5
15 14.02 З 6 5000 м слабый дождь со снегом {ливн. осадки} 10/6 180 м
[Frnb As op]
-5.0 -6.0 93 -13 -13 прохладно 1010.5 990.8
18 14.02 СЗ 6 10 км слабый снег {ливн. осадки} 10/8 300 м
[Frnb As op]
-1.8 -3.2 90 -9 -9 по сезону 1010.1 990.7 -1.8 2
21 14.02 СЗ 6 10 км {снег} 10/6 600 м
[Sc Ac und]
+0.8 -1.5 85 -6 -6 по сезону 1011.2 991.9
00 15.02 СЗ 7 10 км {снег} 9/0
[Ac trans]
+0.8 -3.1 75 -6 -6 по сезону 1013.0 993.7
03 15.02 СЗ 6 10 км 9/5 1000 м
[Sc Ac trans]
-0.1 -4.4 73 -7 -7 по сезону 1014.6 995.2
06 15.02 С 7 10 км 9/4 1000 м
[Sc Ac trans]
-0.8 -6.1 67 -8 -8 по сезону 1017.5 998.0 -1.8 0.0 30
09 15.02 С 8 10 км 9/9 840 м
[Sc]
-0.6 -6.2 66 -8 -8 по сезону 1020.0 1000.5
12 15.02 С 8 10 км 9/6 930 м
[Sc Ac und]
-0.2 -6.0 65 -7 -7 по сезону 1021.9 1002.3
15 15.02 С 5 10 км 9/8 1000 м
[Sc Ac trans]
-1.6 -6.8 68 -8 -8 по сезону 1025.0 1005.3
18 15.02 С 6 10 км 4/0
[Ac trans]
-2.8 -8.1 67 -10 -10 по сезону 1027.8 1007.9 -0.2
21 15.02 С 5 10 км 9/5 1000 м
[Sc Ac trans]
-2.7 -8.9 62 -9 -9 по сезону 1028.5 1008.6
00 16.02 С 4 10 км 3/0
[Ac trans]
-6.1 -10.5 71 -12 -12 по сезону 1030.2 1010.0
03 16.02 СЗ 3 10 км ясно -7.8 -11.4 75 -13 -13 по сезону 1031.2 1010.9
06 16.02 С 3 10 км 3/0
[Ci fib]
-9.2 -12.7 76 -15 -14 прохладно 1032.7 1012.3 -9.8 30
09 16.02 С 4 10 км 1/0
[Ci fib]
-4.6 -11.8 57 -10 -7 по сезону 1032.6 1012.5
12 16.02 СВ 3 10 км 3/0
[Ci fib]
-3.3 -12.3 50 -8 -6 по сезону 1031.9 1011.9
15 16.02 С 3 10 км ясно -4.9 -12.2 57 -10 -10 по сезону 1032.1 1012.0
18 16.02 З 1 4000 м дымка 3/0
[Ci fib]
-7.6 -11.6 73 -10 -10 по сезону 1032.5 1012.2 -3.3
21 16.02 Ю 1 5000 м дымка ясно -11.0 -13.0 85 -13 -13 по сезону 1032.3 1011.7
00 17.02 штиль 0 4000 м дымка 5/0
[Ac trans Ci fib]
-13.2 -14.2 92 -13 -13 по сезону 1032.1 1011.4
03 17.02 ЮВ 2 10 км 6/0
[Ac trans Ci fib]
-12.2 -13.8 88 -17 -17 холодно 1030.5 1009.9
06 17.02 ЮВ 3 10 км 9/0
[Ac trans]
-10.2 -11.7 89 -16 -16 прохладно 1029.0 1008.6 -13.2 29
09 17.02 Ю 4 10 км слабый ливневой снег 10/10 600 м
[Cb cap]
-4.8 -9.2 71 -11 -11 по сезону 1027.1 1007.1
12 17.02 Ю 7 10 км {ливн. осадки} 10/4 600 м
[Sc Ac As]
-3.3 -8.4 68 -11 -11 прохладно 1024.4 1004.6
15 17.02 Ю 5 10 км 8/0
[Ac trans]
-3.4 -7.7 72 -10 -10 по сезону 1022.7 1002.9
18 17.02 ЮЗ 7 10 км 10/10 400 м
[Sc]
-3.3 -6.1 81 -11 -11 по сезону 1022.0 1002.2 -3.1 0.0
21 17.02 ЮЗ 6 10 км 10/10 300 м
[Sc]
-1.3 -3.0 88 -8 -8 по сезону 1021.1 1001.5
00 18.02 ЮЗ 6 10 км 10/10 270 м
[Sc]
-1.0 -2.6 89 -8 -8 по сезону 1020.7 1001.1
03 18.02 ЮЗ 5 10 км 10/10 300 м
[Sc]
-0.6 -2.1 90 -7 -7 по сезону 1020.2 1000.7
06 18.02 ЮЗ 5 10 км 10/10 240 м
[Sc]
-0.9 -2.2 91 -7 -7 по сезону 1020.7 1001.1 -3.3 29
09 18.02 ЮЗ 5 10 км 10/10 270 м
[Sc]
+0.9 -0.5 90 -5 -5 по сезону 1020.4 1001.0
12 18.02 ЮЗ 6 10 км 10/10 300 м
[Sc]
+1.4 -0.5 87 -5 -5 по сезону 1019.7 1000.3
15 18.02 ЮЗ 5 10 км 10/10 210 м
[Sc]
+1.2 +0.1 92 -5 -5 по сезону 1020.0 1000.6
18 18.02 ЮЗ 3 10 км 10/10 270 м
[St]
+1.0 -0.1 92 -4 -4 по сезону 1020.6 1001.2 +1.8
21 18.02 ЮЗ 4 10 км 10/10 240 м
[St]
+1.1 -0.0 92 -4 -4 тепло 1021.5 1002.1
00 19.02 ЮЗ 4 5000 м дымка 10/10 150 м
[St]
+1.0 +0.2 94 -4 -4 тепло 1022.1 1002.6
03 19.02 З 3 3200 м дымка 10/10 120 м
[St]
+0.7 +0.1 96 -4 -4 тепло 1022.9 1003.4
06 19.02 ЮЗ 3 1600 м дымка 10/10 90 м
[St]
+0.8 +0.2 96 -4 -4 тепло 1024.2 1004.7 +0.7 27
09 19.02 З 3 3800 м дымка 10/10 180 м
[St]
+1.4 +0.6 94 -3 -3 тепло 1025.0 1005.5
12 19.02 ЮЗ 4 10 км 9/9 600 м
[Sc]
+3.2 -0.6 76 -1 -1 тепло 1024.1 1004.8
15 19.02 ЮЗ 4 5000 м дымка 9/9 1000 м
[Sc]
+1.8 +0.2 89 -3 -3 по сезону 1024.0 1004.6
18 19.02 ЮЗ 4 4000 м дымка 8/8 840 м
[Sc]
+1.0 -0.4 90 -4 -4 по сезону 1024.1 1004.6 +3.5
21 19.02 Ю 3 10 км ясно 0.0 -1.8 88 -5 -5 по сезону 1023.5 1003.9
00 20.02 ЮЗ 4 10 км ясно -1.6 -2.7 92 -8 -8 по сезону 1023.0 1003.3
03 20.02 З 5 4000 м дымка 9/9 180 м
[St]
-1.2 -2.2 93 -8 -8 по сезону 1022.3 1002.7
06 20.02 ЮЗ 3 5000 м дымка 10/10 210 м
[St]
-0.9 -1.9 93 -6 -6 по сезону 1022.1 1002.5 -2.5 25
09 20.02 ЮЗ 4 10 км 5/5 600 м
[Sc]
+2.0 -1.1 80 -3 -1 тепло 1021.3 1001.9
12 20.02 ЮЗ 6 10 км 8/8 400 м
[Sc]
+2.0 -0.5 83 -4 -4 по сезону 1019.5 1000.2
15 20.02 ЮЗ 4 10 км 3/0
[Ci fib]
+1.8 -1.6 78 -3 -3 по сезону 1017.4 998.1
18 20.02 ЮЗ 4 10 км 4/0
[Ci fib]
-0.4 -2.8 84 -6 -6 по сезону 1016.6 997.1 +2.8
21 20.02 Ю 3 5000 м дымка ясно -1.0 -2.3 91 -6 -6 по сезону 1014.6 995.1

 

Местоположение метеостанции Харьков (Харьковская область, Украина): широта 49.97 долгота 36.13 высота над уровнем моря 155 м.

В архиве по умолчанию представлена погода в Харькове за последнюю неделю. Архивные данные за месяц целиком и за предыдущие месяцы, начиная с января 2011 года, Вы можете получить, выбрав интересующий диапазон дат из раскрывающегося списка и нажав кнопку "Ввод!".

Внимание! Время в таблицах - всемирное. Для получения местного времени необходимо прибавить поправку, которая в Харькове равна 2 ч.

Смотрите также архив погоды в соседних городах и на ближайших метеорологических станциях:

Погода в Золочеве (Львовская область, Украина) (39 км)
Погода в Боходухове (Харьковская область, Украина) (50 км)
Погода в Комсомольском (Донецкая область, Украина) (50 км)
Погода в Коломаке (Харьковская область, Украина) (66 км)
Погода в Белгороде (Белгородская область, Россия) (80 км)
Погода в Краснограде (Харьковская область, Украина) (82 км)
Погода в Великом Бурлуке (Харьковская область, Украина) (90 км)
Погода в Готне (Белгородская область, Россия) (96 км)
Погода в Купянске (Харьковская область, Украина) (119 км)
Погода в Лозовой (Харьковская область, Украина) (120 км)

Пояснения к столбцам:

Ветер - указаны скорость ветра в м/с - средняя за 10 мин, порывы в срок и между сроками (в фигурных скобках) и направление, откуда дует ветер: С - северный, СВ - северо-восточный, В - восточный, ЮВ - юго-восточный, Ю - южный, ЮЗ - юго-западный, З - западный, СЗ - северо-западный.
Видимость - горизонтальная дальность видимости в метрах или километрах. При видимости от 1 до 10 км при отсутствии осадков обычно наблюдается дымка, при ухудшении видимости до 1 км и менее - туман. В сухую погоду видимость может ухудшаться дымом, пылью или мглою.
Явления - указаны атмосферные явления, наблюдавшиеся в срок или в последний час перед сроком; фигурными скобками обозначены явления, наблюдавшиеся между сроками (за 1-3 часа до срока); квадратными скобками обозначены град или гололедные отложения с указанием их диаметра в мм.
Облачность - указаны через наклонную черту общая и нижняя облачность в баллах и высота нижней границы облаков в метрах; квадратными скобками обозначены формы облаков: Ci - перистые, Cs - перисто-слоистые, Cc - перисто-кучевые, Ac - высококучевые, As - высокослоистые, Sc - слоисто-кучевые, Ns - слоисто-дождевые, Cu - кучевые, Cb - кучево-дождевые. Подробнее классификацию облаков см. в Атласе облаков (PDF).
T - Температура воздуха - температура, измеренная на высоте 2 м над землей.
Td - Температура точки росы - температура, при понижении до которой содержащийся в воздухе водяной пар достигнет насыщения.
f - Относительная влажность воздуха - влажноcть воздуха, измеренная на высоте 2 м над землей.
Te - Эффективная температура - температура, которую ощущает одетый по сезону человек в тени. Характеристика душности погоды. При расчете учитывается влияние влажности воздуха и скорости ветра на теплоощущения человека.
Tes - Эффективная температура на солнце - температура, которую ощущает человек, с поправкой на солнечный нагрев. Характеристика знойности погоды. Зависит от высоты солнца над горизонтом, облачности и скорости ветра. Ночью, в пасмурную погоду, а также при ветре 12 м/с и более поправка равна нулю.
P - Атмосферное давление - приведенное к уровню моря атмосферное давление.
Po - Атмосферное давление - измеренное на уровне метеостанции атмосферное давление.
Tmin - Минимальная температура - минимум температуры воздуха на высоте 2 м над землей.
Tmax - Максимальная температура - максимум температуры воздуха на высоте 2 м над землей.
R - Количество осадков - Количество выпавших осадков, мм. При наведении курсора мыши на число - период времени, за который выпало указанное количество осадков.
S - Снежный покров - Высота снежного покрова, см. При наведении курсора мыши на число - состояние снежного покрова и степень покрытия местности в баллах.